Weather History for Topeka, KS

Change the Weather History Date:

Friday, February 28, 2014

  Actual Average Record
Temperature  
Mean Temperature 38 °F 39 °F  
Max Temperature 52 °F 50 °F 81 °F (2006)
Min Temperature 23 °F 28 °F -5 °F (1890)
Degree Days  
Heating Degree Days 27 26  
Month to date heating degree days 1061 856  
Since 1 July heating degree days 4322 3967  
Cooling Degree Days 0 0  
Month to date cooling degree days 0 0  
Year to date cooling degree days 0 0  
Moisture  
Dew Point 20 °F    
Average Humidity 52    
Maximum Humidity 70    
Minimum Humidity 33    
Precipitation  
Precipitation 0.00 in 0.05 in 1.65 in (1987)
Month to date precipitation 1.29 1.32  
Year to date precipitation 1.66 2.18  
Snow  
Snow 0.00 in 0.10 in 3.70 in (1919)
Month to date snowfall 15.0 4.5  
Year to date snowfall 18.9 9.4  
Since 1 July snowfall 23.2 15.9  
Snow Depth 0.00 in    
Sea Level Pressure  
Sea Level Pressure 29.89 in    
Wind  
Wind Speed 9 mph (SE)    
Max Wind Speed 20 mph    
Max Gust Speed 25 mph    
Visibility 10 miles    
Events      
T = Trace of Precipitation, MM = Missing Value Source: NWS Daily Summary

Daily Weather History Graph

Daily Weather History Graph

Search for Another Location

Airport:

Trip Planner

Search our weather history database for the weather conditions in past years. The results will help you decide how hot, cold, wet, or windy it might be!

Date:

Astronomy

Feb. 28, 2014 Rise Set
Actual Time 6:56 AM CST 6:14 PM CST
Civil Twilight 6:29 AM CST 6:40 PM CST
Nautical Twilight 5:58 AM CST 7:11 PM CST
Astronomical Twilight 5:27 AM CST 7:42 PM CST
Moon 6:11 AM CST (2/28) 5:52 PM CST (2/28)
Length of Visible Light 12h 11m
Length of Day
11h 17m
Waning Crescent, 1% of the Moon is Illuminated
Feb 28
Waning Crescent
Mar 1
New
Mar 8
First Quarter
Mar 16
Full
Mar 23
Last Quarter

Hourly Weather History & Observations

Time (CST) Temp. Windchill Dew Point Humidity Pressure Visibility Wind Dir Wind Speed Gust Speed Precip Events Conditions
12:53 AM 26.1 °F 15.6 °F 3.0 °F 37% 29.91 in 10.0 mi East 11.5 mph - N/A   Clear
1:53 AM 26.1 °F 16.8 °F 3.9 °F 39% 29.89 in 10.0 mi East 9.2 mph - N/A   Clear
2:53 AM 26.1 °F 15.0 °F 5.0 °F 41% 29.87 in 10.0 mi ESE 12.7 mph - N/A   Clear
3:53 AM 25.0 °F 13.1 °F 5.0 °F 43% 29.84 in 10.0 mi ESE 13.8 mph - N/A   Clear
4:53 AM 24.1 °F 14.4 °F 6.1 °F 46% 29.84 in 10.0 mi East 9.2 mph - N/A   Clear
5:53 AM 24.1 °F 15.2 °F 7.0 °F 48% 29.84 in 10.0 mi ESE 8.1 mph - N/A   Clear
6:53 AM 23.0 °F 14.7 °F 8.1 °F 53% 29.82 in 10.0 mi East 6.9 mph - N/A   Clear
7:53 AM 28.0 °F 21.7 °F 10.0 °F 47% 29.82 in 10.0 mi East 5.8 mph - N/A   Clear
8:53 AM 30.9 °F 23.5 °F 12.0 °F 46% 29.86 in 10.0 mi ESE 8.1 mph - N/A   Partly Cloudy
9:53 AM 37.9 °F 31.5 °F 16.0 °F 41% 29.85 in 10.0 mi SE 9.2 mph - N/A   Mostly Cloudy
10:53 AM 43.0 °F 37.7 °F 18.0 °F 37% 29.85 in 10.0 mi SSE 9.2 mph - N/A   Clear
11:53 AM 46.9 °F - 21.9 °F 37% 29.84 in 10.0 mi South 15.0 mph - N/A   Clear
12:53 PM 51.1 °F - 26.1 °F 38% 29.80 in 10.0 mi South 15.0 mph 20.7 mph N/A   Clear
1:53 PM 52.0 °F - 28.0 °F 40% 29.80 in 10.0 mi SSE 15.0 mph - N/A   Clear
2:53 PM 48.0 °F - 32.0 °F 54% 29.85 in 10.0 mi SSW 9.2 mph - N/A   Overcast
3:53 PM 48.0 °F - 32.0 °F 54% 29.85 in 10.0 mi South 9.2 mph - N/A   Overcast
4:01 PM 46.9 °F - 32.0 °F 56% 29.84 in 10.0 mi South 9.2 mph - N/A   Overcast
4:38 PM 46.9 °F - 32.0 °F 56% 29.84 in 10.0 mi South 8.1 mph - N/A   Overcast
4:53 PM 46.9 °F - 30.9 °F 54% 29.86 in 10.0 mi South 9.2 mph - N/A   Overcast
5:53 PM 45.0 °F 41.8 °F 30.9 °F 58% 29.88 in 10.0 mi South 5.8 mph - N/A   Mostly Cloudy
6:53 PM 44.1 °F 42.5 °F 32.0 °F 63% 29.92 in 9.0 mi SSW 3.5 mph - N/A   Overcast
7:53 PM 44.1 °F 42.5 °F 33.1 °F 65% 29.94 in 8.0 mi SSW 3.5 mph - N/A   Overcast
8:53 PM 41.0 °F - 32.0 °F 70% 29.95 in 7.0 mi Calm Calm - N/A   Overcast
9:24 PM 39.9 °F 32.1 °F 25.0 °F 55% 29.97 in 10.0 mi North 13.8 mph - N/A   Overcast
9:53 PM 37.0 °F 28.1 °F 21.9 °F 54% 30.02 in 10.0 mi North 15.0 mph - N/A   Overcast
10:53 PM 33.1 °F 24.9 °F 23.0 °F 66% 30.07 in 10.0 mi North 10.4 mph 18.4 mph N/A   Overcast
11:53 PM 30.9 °F 21.2 °F 24.1 °F 76% 30.09 in 9.0 mi North 12.7 mph - N/A   Overcast